Time,TemperatureF,DewpointF,PressureIn,WindDirection,WindDirectionDegrees,WindSpeedMPH,WindSpeedGustMPH,Humidity,HourlyPrecipIn,Conditions,Clouds,dailyrainin,SoftwareType,DateUTC
2013-03-09 00:05:00,26.2,21.5,30.25,SSW,202,2.7,-999.0,82,-99.99,,,0.00,Acu-Link.com,2013-03-09 05:05:00,
2013-03-09 00:23:00,25.2,20.2,30.25,WSW,247,0.0,-999.0,81,-99.99,,,0.00,Acu-Link.com,2013-03-09 05:23:00,
2013-03-09 00:41:00,25.5,20.8,30.25,ESE,112,0.0,-999.0,82,-99.99,,,0.00,Acu-Link.com,2013-03-09 05:41:00,
2013-03-09 00:57:00,25.0,20.0,30.26,West,270,0.0,-999.0,81,-99.99,,,0.00,Acu-Link.com,2013-03-09 05:57:00,
2013-03-09 01:20:00,25.0,19.7,30.27,WNW,292,0.0,-999.0,80,-99.99,,,0.00,Acu-Link.com,2013-03-09 06:20:00,
2013-03-09 01:35:00,25.0,19.7,30.27,SSE,157,0.0,-999.0,80,-99.99,,,0.00,Acu-Link.com,2013-03-09 06:35:00,
2013-03-09 01:57:00,24.1,18.8,30.27,ESE,112,0.0,-999.0,80,-99.99,,,0.00,Acu-Link.com,2013-03-09 06:57:00,
2013-03-09 02:21:00,23.4,17.9,30.27,East,90,0.0,-999.0,79,-99.99,,,0.00,Acu-Link.com,2013-03-09 07:21:00,
2013-03-09 02:41:00,23.4,17.6,30.25,SE,135,4.7,-999.0,78,-99.99,,,0.00,Acu-Link.com,2013-03-09 07:41:00,
2013-03-09 03:03:00,22.8,16.4,30.24,West,270,2.7,-999.0,76,-99.99,,,0.00,Acu-Link.com,2013-03-09 08:03:00,
2013-03-09 03:42:00,21.6,15.5,30.23,SE,135,0.0,-999.0,77,-99.99,,,0.00,Acu-Link.com,2013-03-09 08:42:00,
2013-03-09 03:58:00,21.6,15.5,30.24,ESE,112,0.0,-999.0,77,-99.99,,,0.00,Acu-Link.com,2013-03-09 08:58:00,
2013-03-09 04:19:00,21.2,14.8,30.24,ESE,112,3.2,-999.0,76,-99.99,,,0.00,Acu-Link.com,2013-03-09 09:19:00,
2013-03-09 04:37:00,21.0,14.9,30.25,ESE,112,0.0,-999.0,77,-99.99,,,0.00,Acu-Link.com,2013-03-09 09:37:00,
2013-03-09 04:55:00,20.3,14.3,30.26,SE,135,0.0,-999.0,77,-99.99,,,0.00,Acu-Link.com,2013-03-09 09:55:00,
2013-03-09 05:10:00,19.9,13.9,30.26,ESE,112,0.0,-999.0,77,-99.99,,,0.00,Acu-Link.com,2013-03-09 10:10:00,
2013-03-09 05:27:00,19.8,14.1,30.26,ESE,112,0.0,-999.0,78,-99.99,,,0.00,Acu-Link.com,2013-03-09 10:27:00,
2013-03-09 05:45:00,19.8,13.8,30.26,ESE,112,0.0,-999.0,77,-99.99,,,0.00,Acu-Link.com,2013-03-09 10:45:00,
2013-03-09 06:03:00,19.4,13.1,30.26,NNE,22,0.0,-999.0,76,-99.99,,,0.00,Acu-Link.com,2013-03-09 11:03:00,
2013-03-09 06:24:00,19.0,12.7,30.27,ESE,112,0.0,-999.0,76,-99.99,,,0.00,Acu-Link.com,2013-03-09 11:24:00,
2013-03-09 06:40:00,18.9,12.9,30.27,ESE,112,0.0,-999.0,77,-99.99,,,0.00,Acu-Link.com,2013-03-09 11:40:00,
2013-03-09 06:58:00,18.7,12.4,30.28,South,180,0.0,-999.0,76,-99.99,,,0.00,Acu-Link.com,2013-03-09 11:58:00,
2013-03-09 07:13:00,18.5,11.9,30.28,SW,225,0.0,-999.0,75,-99.99,,,0.00,Acu-Link.com,2013-03-09 12:13:00,
2013-03-09 07:33:00,19.8,13.5,30.29,SE,135,0.0,-999.0,76,-99.99,,,0.00,Acu-Link.com,2013-03-09 12:33:00,
2013-03-09 07:52:00,20.7,14.4,30.28,SE,135,4.7,-999.0,76,-99.99,,,0.00,Acu-Link.com,2013-03-09 12:52:00,
2013-03-09 08:07:00,22.1,15.7,30.28,ESE,112,0.0,-999.0,76,-99.99,,,0.00,Acu-Link.com,2013-03-09 13:07:00,
2013-03-09 08:23:00,22.6,16.5,30.28,ESE,112,0.0,-999.0,77,-99.99,,,0.00,Acu-Link.com,2013-03-09 13:23:00,
2013-03-09 08:52:00,23.7,17.3,30.28,ESE,112,0.0,-999.0,76,-99.99,,,0.00,Acu-Link.com,2013-03-09 13:52:00,
2013-03-09 09:09:00,25.9,19.4,30.27,SSW,202,0.0,-999.0,76,-99.99,,,0.00,Acu-Link.com,2013-03-09 14:09:00,
2013-03-09 09:28:00,34.9,27.5,30.25,ESE,112,0.0,-999.0,74,-99.99,,,0.00,Acu-Link.com,2013-03-09 14:28:00,
2013-03-09 09:45:00,38.1,30.9,30.25,South,180,0.0,-999.0,75,-99.99,,,0.00,Acu-Link.com,2013-03-09 14:45:00,
2013-03-09 10:01:00,36.1,32.9,30.24,South,180,1.1,-999.0,88,-99.99,,,0.00,Acu-Link.com,2013-03-09 15:01:00,
2013-03-09 10:19:00,38.1,34.3,30.24,SW,225,0.0,-999.0,86,-99.99,,,0.00,Acu-Link.com,2013-03-09 15:19:00,
2013-03-09 11:08:00,43.3,33.8,30.22,SW,225,0.0,-999.0,69,-99.99,,,0.00,Acu-Link.com,2013-03-09 16:08:00,
2013-03-09 11:56:00,45.5,33.2,30.22,West,270,0.0,-999.0,62,-99.99,,,0.00,Acu-Link.com,2013-03-09 16:56:00,
2013-03-09 12:20:00,45.5,33.2,30.20,West,270,0.0,-999.0,62,-99.99,,,0.00,Acu-Link.com,2013-03-09 17:20:00,
2013-03-09 12:43:00,51.8,31.7,30.18,West,270,0.0,-999.0,46,-99.99,,,0.00,Acu-Link.com,2013-03-09 17:43:00,
2013-03-09 12:58:00,51.8,31.7,30.19,SSW,202,3.7,-999.0,46,-99.99,,,0.00,Acu-Link.com,2013-03-09 17:58:00,
2013-03-09 13:17:00,53.1,31.8,30.18,North,0,0.0,-999.0,44,-99.99,,,0.00,Acu-Link.com,2013-03-09 18:17:00,
2013-03-09 13:33:00,54.5,30.1,30.18,SSE,157,0.0,-999.0,39,-99.99,,,0.00,Acu-Link.com,2013-03-09 18:33:00,
2013-03-09 13:48:00,54.3,31.1,30.17,ESE,112,0.0,-999.0,41,-99.99,,,0.00,Acu-Link.com,2013-03-09 18:48:00,
2013-03-09 14:09:00,55.2,32.5,30.16,North,0,0.0,-999.0,42,-99.99,,,0.00,Acu-Link.com,2013-03-09 19:09:00,
2013-03-09 14:25:00,57.7,34.8,30.16,WNW,292,0.0,-999.0,42,-99.99,,,0.00,Acu-Link.com,2013-03-09 19:25:00,
2013-03-09 14:42:00,57.7,34.8,30.17,WNW,292,3.2,-999.0,42,-99.99,,,0.00,Acu-Link.com,2013-03-09 19:42:00,
2013-03-09 15:00:00,56.3,32.3,30.15,WNW,292,3.7,-999.0,40,-99.99,,,0.00,Acu-Link.com,2013-03-09 20:00:00,
2013-03-09 15:19:00,56.8,32.1,30.15,ESE,112,1.7,-999.0,39,-99.99,,,0.00,Acu-Link.com,2013-03-09 20:19:00,
2013-03-09 15:34:00,56.3,32.3,30.15,West,270,3.7,-999.0,40,-99.99,,,0.00,Acu-Link.com,2013-03-09 20:34:00,
2013-03-09 15:58:00,56.7,32.7,30.14,SE,135,5.3,-999.0,40,-99.99,,,0.00,Acu-Link.com,2013-03-09 20:58:00,
2013-03-09 16:21:00,57.2,32.5,30.15,ESE,112,0.0,-999.0,39,-99.99,,,0.00,Acu-Link.com,2013-03-09 21:21:00,
2013-03-09 16:38:00,56.7,33.3,30.14,SSW,202,0.0,-999.0,41,-99.99,,,0.00,Acu-Link.com,2013-03-09 21:38:00,
2013-03-09 16:56:00,56.1,32.1,30.14,West,270,0.0,-999.0,40,-99.99,,,0.00,Acu-Link.com,2013-03-09 21:56:00,
2013-03-09 17:14:00,54.0,31.4,30.13,SSE,157,0.0,-999.0,42,-99.99,,,0.00,Acu-Link.com,2013-03-09 22:14:00,
2013-03-09 17:31:00,52.5,30.1,30.13,SE,135,0.0,-999.0,42,-99.99,,,0.00,Acu-Link.com,2013-03-09 22:31:00,
2013-03-09 17:47:00,51.6,32.0,30.14,ESE,112,0.0,-999.0,47,-99.99,,,0.00,Acu-Link.com,2013-03-09 22:47:00,
2013-03-09 18:09:00,48.0,35.6,30.15,SE,135,0.0,-999.0,62,-99.99,,,0.00,Acu-Link.com,2013-03-09 23:09:00,
2013-03-09 18:29:00,45.3,36.5,30.15,ESE,112,0.0,-999.0,71,-99.99,,,0.00,Acu-Link.com,2013-03-09 23:29:00,
2013-03-09 18:44:00,44.8,34.9,30.15,SE,135,0.0,-999.0,68,-99.99,,,0.00,Acu-Link.com,2013-03-09 23:44:00,
2013-03-09 19:09:00,43.2,37.5,30.15,ESE,112,0.0,-999.0,80,-99.99,,,0.00,Acu-Link.com,2013-03-10 00:09:00,
2013-03-09 19:29:00,41.4,39.0,30.15,SE,135,0.0,-999.0,91,-99.99,,,0.00,Acu-Link.com,2013-03-10 00:29:00,
2013-03-09 19:47:00,38.5,38.0,30.15,West,270,0.0,-999.0,98,-99.99,,,0.00,Acu-Link.com,2013-03-10 00:47:00,
2013-03-09 20:10:00,37.9,37.4,30.15,SE,135,0.0,-999.0,98,-99.99,,,0.00,Acu-Link.com,2013-03-10 01:10:00,
2013-03-09 20:26:00,35.4,34.9,30.15,ESE,112,0.0,-999.0,98,-99.99,,,0.00,Acu-Link.com,2013-03-10 01:26:00,
2013-03-09 20:44:00,36.0,35.5,30.14,NNW,337,0.0,-999.0,98,-99.99,,,0.00,Acu-Link.com,2013-03-10 01:44:00,
2013-03-09 21:03:00,33.7,33.2,30.14,ESE,112,0.0,-999.0,98,-99.99,,,0.00,Acu-Link.com,2013-03-10 02:03:00,
2013-03-09 21:19:00,33.4,32.9,30.15,SE,135,0.0,-999.0,98,-99.99,,,0.00,Acu-Link.com,2013-03-10 02:19:00,
2013-03-09 21:36:00,32.5,32.0,30.15,SE,135,0.0,-999.0,98,-99.99,,,0.00,Acu-Link.com,2013-03-10 02:36:00,
2013-03-09 21:53:00,31.6,31.1,30.15,SE,135,0.0,-999.0,98,-99.99,,,0.00,Acu-Link.com,2013-03-10 02:53:00,
2013-03-09 22:09:00,31.5,31.0,30.15,South,180,0.0,-999.0,98,-99.99,,,0.00,Acu-Link.com,2013-03-10 03:09:00,
2013-03-09 22:25:00,31.3,30.8,30.15,East,90,0.0,-999.0,98,-99.99,,,0.00,Acu-Link.com,2013-03-10 03:25:00,
2013-03-09 22:41:00,30.4,29.9,30.15,SW,225,0.0,-999.0,98,-99.99,,,0.00,Acu-Link.com,2013-03-10 03:41:00,
2013-03-09 22:58:00,30.6,30.1,30.15,ESE,112,0.0,-999.0,98,-99.99,,,0.00,Acu-Link.com,2013-03-10 03:58:00,
2013-03-09 23:18:00,30.2,29.7,30.15,ESE,112,0.0,-999.0,98,-99.99,,,0.00,Acu-Link.com,2013-03-10 04:18:00,
2013-03-09 23:33:00,28.6,28.1,30.14,ESE,112,0.0,-999.0,98,-99.99,,,0.00,Acu-Link.com,2013-03-10 04:33:00,
2013-03-09 23:49:00,29.3,28.8,30.15,ESE,112,0.0,-999.0,98,-99.99,,,0.00,Acu-Link.com,2013-03-10 04:49:00,